Time,TemperatureF,DewpointF,PressureIn,WindDirection,WindDirectionDegrees,WindSpeedMPH,WindSpeedGustMPH,Humidity,HourlyPrecipIn,Conditions,Clouds,dailyrainin,SoftwareType,DateUTC
2013-02-27 00:01:00,39.0,34.0,29.86,ESE,116,5.8,10.7,82,0.00,,,0.00,WUHU21623XXSP,2013-02-27 05:01:00,
2013-02-27 00:04:00,39.0,34.0,29.86,East,93,6.3,10.7,82,0.00,,,0.00,WUHU21623XXSP,2013-02-27 05:04:00,
2013-02-27 00:07:00,39.0,34.0,29.85,ESE,116,11.9,11.9,82,0.00,,,0.00,WUHU21623XXSP,2013-02-27 05:07:00,
2013-02-27 00:13:00,39.0,34.0,29.83,East,93,13.9,13.9,82,0.00,,,0.00,WUHU21623XXSP,2013-02-27 05:13:00,
2013-02-27 00:20:00,39.4,34.4,29.84,ENE,71,5.1,13.9,82,0.00,,,0.00,WUHU21623XXSP,2013-02-27 05:20:00,
2013-02-27 00:26:00,39.4,34.4,29.85,ENE,74,5.7,6.5,82,0.00,,,0.00,WUHU21623XXSP,2013-02-27 05:26:00,
2013-02-27 00:32:00,39.4,34.4,29.85,ENE,71,7.4,10.3,82,0.00,,,0.00,WUHU21623XXSP,2013-02-27 05:32:00,
2013-02-27 00:39:00,39.6,34.8,29.86,NE,48,11.4,11.9,83,0.00,,,0.00,WUHU21623XXSP,2013-02-27 05:39:00,
2013-02-27 00:46:00,39.6,34.8,29.86,East,93,6.0,11.4,83,0.00,,,0.00,WUHU21623XXSP,2013-02-27 05:46:00,
2013-02-27 00:52:00,39.6,34.8,29.84,ENE,71,4.9,8.5,83,0.00,,,0.00,WUHU21623XXSP,2013-02-27 05:52:00,
2013-02-27 00:59:00,39.7,35.3,29.84,NE,48,12.1,12.1,84,0.00,,,0.00,WUHU21623XXSP,2013-02-27 05:59:00,
2013-02-27 01:04:00,39.7,35.3,29.85,East,93,4.5,12.1,84,0.00,,,0.00,WUHU21623XXSP,2013-02-27 06:04:00,
2013-02-27 01:09:00,39.9,35.4,29.85,ENE,72,11.3,12.1,84,0.00,,,0.00,WUHU21623XXSP,2013-02-27 06:09:00,
2013-02-27 01:15:00,40.1,35.4,29.84,ESE,106,7.5,12.1,84,0.00,,,0.00,WUHU21623XXSP,2013-02-27 06:15:00,
2013-02-27 01:22:00,40.3,35.8,29.83,ENE,71,12.8,12.8,84,0.00,,,0.00,WUHU21623XXSP,2013-02-27 06:22:00,
2013-02-27 01:28:00,40.3,35.8,29.81,ENE,71,9.5,12.8,84,0.00,,,0.00,WUHU21623XXSP,2013-02-27 06:28:00,
2013-02-27 01:35:00,40.5,35.9,29.81,NE,48,7.6,11.9,84,0.00,,,0.00,WUHU21623XXSP,2013-02-27 06:35:00,
2013-02-27 01:41:00,40.5,36.2,29.80,NE,48,10.7,11.9,85,0.00,,,0.00,WUHU21623XXSP,2013-02-27 06:41:00,
2013-02-27 01:48:00,40.5,36.2,29.80,East,93,8.5,10.7,85,0.00,,,0.00,WUHU21623XXSP,2013-02-27 06:48:00,
2013-02-27 01:54:00,40.6,36.4,29.80,NE,48,5.1,8.5,85,0.00,,,0.00,WUHU21623XXSP,2013-02-27 06:54:00,
2013-02-27 02:01:00,40.6,36.4,29.79,ESE,116,4.7,5.1,85,0.00,,,0.00,WUHU21623XXSP,2013-02-27 07:01:00,
2013-02-27 02:07:00,40.6,36.4,29.79,East,93,3.8,17.0,85,0.00,,,0.00,WUHU21623XXSP,2013-02-27 07:07:00,
2013-02-27 02:13:00,40.8,36.6,29.78,ENE,71,11.9,17.0,85,0.00,,,0.00,WUHU21623XXSP,2013-02-27 07:13:00,
2013-02-27 02:20:00,40.8,36.6,29.76,ENE,71,6.3,11.9,85,0.00,,,0.00,WUHU21623XXSP,2013-02-27 07:20:00,
2013-02-27 02:26:00,40.8,36.6,29.76,ENE,71,10.5,10.5,85,0.00,,,0.00,WUHU21623XXSP,2013-02-27 07:26:00,
2013-02-27 02:32:00,40.8,36.9,29.74,East,79,11.8,15.0,86,0.00,,,0.00,WUHU21623XXSP,2013-02-27 07:32:00,
2013-02-27 02:39:00,40.8,36.9,29.74,ENE,71,12.3,15.0,86,0.00,,,0.00,WUHU21623XXSP,2013-02-27 07:39:00,
2013-02-27 02:45:00,41.2,37.3,29.73,East,93,6.5,13.9,86,0.00,,,0.00,WUHU21623XXSP,2013-02-27 07:45:00,
2013-02-27 02:52:00,41.2,37.3,29.73,ESE,116,16.8,16.8,86,0.00,,,0.00,WUHU21623XXSP,2013-02-27 07:52:00,
2013-02-27 02:58:00,41.5,37.4,29.72,NE,48,8.1,16.8,86,0.00,,,0.00,WUHU21623XXSP,2013-02-27 07:58:00,
2013-02-27 03:04:00,41.5,37.6,29.71,NE,48,13.4,13.4,86,0.00,,,0.00,WUHU21623XXSP,2013-02-27 08:04:00,
2013-02-27 03:09:00,41.9,37.8,29.71,ENE,71,10.7,17.7,86,0.00,,,0.00,WUHU21623XXSP,2013-02-27 08:09:00,
2013-02-27 03:15:00,42.1,38.5,29.70,East,93,15.0,15.0,87,0.00,,,0.00,WUHU21623XXSP,2013-02-27 08:15:00,
2013-02-27 03:22:00,42.4,38.8,29.69,NE,48,6.5,15.0,87,0.00,,,0.00,WUHU21623XXSP,2013-02-27 08:22:00,
2013-02-27 03:29:00,42.6,39.0,29.68,East,93,14.3,21.0,87,0.00,,,0.00,WUHU21623XXSP,2013-02-27 08:29:00,
2013-02-27 03:34:00,43.0,39.7,29.68,ENE,71,12.8,23.5,88,0.00,,,0.00,WUHU21623XXSP,2013-02-27 08:34:00,
2013-02-27 03:40:00,43.2,39.8,29.67,East,93,17.9,23.5,88,0.00,,,0.00,WUHU21623XXSP,2013-02-27 08:40:00,
2013-02-27 03:46:00,43.5,40.0,29.67,East,93,16.1,18.1,88,0.00,,,0.00,WUHU21623XXSP,2013-02-27 08:46:00,
2013-02-27 03:54:00,43.9,40.6,29.68,ESE,116,17.2,24.8,88,0.00,,,0.00,WUHU21623XXSP,2013-02-27 08:54:00,
2013-02-27 04:01:00,44.2,40.9,29.66,East,93,12.8,24.8,88,0.00,,,0.00,WUHU21623XXSP,2013-02-27 09:01:00,
2013-02-27 04:06:00,44.4,41.1,29.66,SE,138,7.6,16.8,88,0.00,,,0.00,WUHU21623XXSP,2013-02-27 09:06:00,
2013-02-27 04:13:00,44.8,41.5,29.65,ENE,71,9.6,21.7,88,0.00,,,0.00,WUHU21623XXSP,2013-02-27 09:13:00,
2013-02-27 04:19:00,45.0,41.6,29.66,NNE,26,11.6,14.3,88,0.00,,,0.00,WUHU21623XXSP,2013-02-27 09:19:00,
2013-02-27 04:26:00,45.0,41.6,29.65,NE,48,14.3,14.3,88,0.00,,,0.00,WUHU21623XXSP,2013-02-27 09:26:00,
2013-02-27 04:32:00,44.6,41.3,29.65,ENE,71,9.6,14.3,88,0.00,,,0.00,WUHU21623XXSP,2013-02-27 09:32:00,
2013-02-27 04:39:00,44.4,40.8,29.65,NE,48,8.3,9.6,87,0.00,,,0.00,WUHU21623XXSP,2013-02-27 09:39:00,
2013-02-27 04:45:00,44.2,40.8,29.65,NE,48,16.1,16.1,87,0.00,,,0.00,WUHU21623XXSP,2013-02-27 09:45:00,
2013-02-27 04:51:00,44.2,40.6,29.64,NE,48,8.1,16.1,87,0.00,,,0.00,WUHU21623XXSP,2013-02-27 09:51:00,
2013-02-27 04:58:00,43.5,40.1,29.63,ENE,71,21.5,21.5,87,0.00,,,0.00,WUHU21623XXSP,2013-02-27 09:58:00,
2013-02-27 05:04:00,43.3,39.7,29.63,ENE,71,6.7,21.5,87,0.00,,,0.00,WUHU21623XXSP,2013-02-27 10:04:00,
2013-02-27 05:11:00,43.3,39.7,29.63,East,93,6.7,21.5,87,0.00,,,0.00,WUHU21623XXSP,2013-02-27 10:11:00,
2013-02-27 05:17:00,43.3,39.7,29.62,NE,48,3.1,6.7,87,0.00,,,0.00,WUHU21623XXSP,2013-02-27 10:17:00,
2013-02-27 05:24:00,43.3,39.7,29.61,NE,48,14.8,18.3,87,0.00,,,0.00,WUHU21623XXSP,2013-02-27 10:24:00,
2013-02-27 05:30:00,43.5,39.9,29.61,ENE,71,5.6,18.1,87,0.00,,,0.00,WUHU21623XXSP,2013-02-27 10:30:00,
2013-02-27 05:37:00,43.7,40.4,29.61,ESE,116,5.1,10.5,88,0.00,,,0.00,WUHU21623XXSP,2013-02-27 10:37:00,
2013-02-27 05:42:00,44.2,40.9,29.61,ESE,116,17.4,17.4,88,0.00,,,0.00,WUHU21623XXSP,2013-02-27 10:42:00,
2013-02-27 05:47:00,44.4,41.4,29.60,East,93,6.5,17.4,89,0.00,,,0.00,WUHU21623XXSP,2013-02-27 10:47:00,
2013-02-27 05:54:00,45.1,42.1,29.60,ENE,71,9.6,13.6,89,0.00,,,0.00,WUHU21623XXSP,2013-02-27 10:54:00,
2013-02-27 06:00:00,45.5,42.3,29.59,NE,48,7.6,9.6,89,0.00,,,0.00,WUHU21623XXSP,2013-02-27 11:00:00,
2013-02-27 06:06:00,46.0,42.7,29.58,East,81,9.0,20.1,89,0.00,,,0.00,WUHU21623XXSP,2013-02-27 11:06:00,
2013-02-27 06:13:00,46.2,43.5,29.58,East,93,21.7,21.7,90,0.00,,,0.00,WUHU21623XXSP,2013-02-27 11:13:00,
2013-02-27 06:18:00,46.2,43.5,29.58,East,93,23.7,23.7,90,0.00,,,0.00,WUHU21623XXSP,2013-02-27 11:18:00,
2013-02-27 06:24:00,46.6,43.7,29.57,ESE,116,20.1,23.7,90,0.00,,,0.00,WUHU21623XXSP,2013-02-27 11:24:00,
2013-02-27 06:31:00,46.6,43.6,29.56,East,93,21.5,21.5,89,0.00,,,0.00,WUHU21623XXSP,2013-02-27 11:31:00,
2013-02-27 06:37:00,46.6,43.6,29.56,ENE,71,18.8,21.5,89,0.00,,,0.00,WUHU21623XXSP,2013-02-27 11:37:00,
2013-02-27 06:42:00,46.6,43.6,29.56,East,87,16.1,23.9,89,0.00,,,0.00,WUHU21623XXSP,2013-02-27 11:42:00,
2013-02-27 06:48:00,46.6,43.6,29.57,ENE,71,21.5,23.9,89,0.00,,,0.00,WUHU21623XXSP,2013-02-27 11:48:00,
2013-02-27 06:54:00,46.6,43.6,29.56,NE,48,11.4,24.6,89,0.00,,,0.00,WUHU21623XXSP,2013-02-27 11:54:00,
2013-02-27 07:00:00,46.8,43.7,29.55,ESE,116,6.9,24.6,89,0.00,,,0.00,WUHU21623XXSP,2013-02-27 12:00:00,
2013-02-27 07:07:00,46.9,43.9,29.55,NE,48,17.9,18.1,89,0.00,,,0.00,WUHU21623XXSP,2013-02-27 12:07:00,
2013-02-27 07:14:00,47.1,44.1,29.55,East,93,14.5,23.0,89,0.00,,,0.00,WUHU21623XXSP,2013-02-27 12:14:00,
2013-02-27 07:20:00,47.1,44.1,29.55,ESE,116,16.3,23.0,89,0.00,,,0.00,WUHU21623XXSP,2013-02-27 12:20:00,
2013-02-27 07:27:00,47.1,44.1,29.55,ENE,71,13.4,16.3,89,0.00,,,0.00,WUHU21623XXSP,2013-02-27 12:27:00,
2013-02-27 07:33:00,47.3,44.0,29.55,East,83,15.4,22.4,88,0.00,,,0.00,WUHU21623XXSP,2013-02-27 12:33:00,
2013-02-27 07:39:00,47.3,44.0,29.55,NE,48,9.6,22.4,88,0.00,,,0.00,WUHU21623XXSP,2013-02-27 12:39:00,
2013-02-27 07:45:00,47.3,44.0,29.54,ESE,116,19.7,20.8,88,0.00,,,0.00,WUHU21623XXSP,2013-02-27 12:45:00,
2013-02-27 07:51:00,47.3,44.0,29.53,NE,48,14.2,19.7,88,0.00,,,0.00,WUHU21623XXSP,2013-02-27 12:51:00,
2013-02-27 07:58:00,47.3,44.0,29.54,ESE,116,12.8,15.9,88,0.00,,,0.00,WUHU21623XXSP,2013-02-27 12:58:00,
2013-02-27 08:04:00,47.3,44.0,29.54,East,93,9.6,15.2,88,0.00,,,0.00,WUHU21623XXSP,2013-02-27 13:04:00,
2013-02-27 08:10:00,47.3,44.0,29.53,ENE,71,16.3,16.3,88,0.00,,,0.00,WUHU21623XXSP,2013-02-27 13:10:00,
2013-02-27 08:17:00,47.1,44.0,29.54,East,93,13.6,16.3,88,0.00,,,0.00,WUHU21623XXSP,2013-02-27 13:17:00,
2013-02-27 08:24:00,47.1,43.8,29.53,ESE,116,22.8,24.2,88,0.00,,,0.00,WUHU21623XXSP,2013-02-27 13:24:00,
2013-02-27 08:30:00,47.1,43.8,29.53,East,93,14.8,24.2,88,0.00,,,0.00,WUHU21623XXSP,2013-02-27 13:30:00,
2013-02-27 08:36:00,47.1,43.8,29.53,NE,48,13.4,23.3,88,0.00,,,0.00,WUHU21623XXSP,2013-02-27 13:36:00,
2013-02-27 08:43:00,47.1,43.8,29.53,NE,48,12.1,18.6,88,0.00,,,0.00,WUHU21623XXSP,2013-02-27 13:43:00,
2013-02-27 08:49:00,47.1,43.8,29.52,East,93,18.3,18.6,88,0.00,,,0.00,WUHU21623XXSP,2013-02-27 13:49:00,
2013-02-27 08:54:00,47.1,43.8,29.53,East,80,22.5,25.7,88,0.00,,,0.00,WUHU21623XXSP,2013-02-27 13:54:00,
2013-02-27 09:00:00,47.1,43.8,29.52,East,93,15.4,25.7,88,0.00,,,0.00,WUHU21623XXSP,2013-02-27 14:00:00,
2013-02-27 09:07:00,47.1,43.8,29.52,ENE,71,14.3,20.8,88,0.00,,,0.00,WUHU21623XXSP,2013-02-27 14:07:00,
2013-02-27 09:13:00,47.1,43.8,29.52,ESE,116,9.8,21.0,88,0.00,,,0.00,WUHU21623XXSP,2013-02-27 14:13:00,
2013-02-27 09:20:00,47.1,43.8,29.52,ESE,116,15.0,17.2,88,0.00,,,0.00,WUHU21623XXSP,2013-02-27 14:20:00,
2013-02-27 09:26:00,47.1,43.8,29.52,East,93,16.8,18.3,88,0.00,,,0.00,WUHU21623XXSP,2013-02-27 14:26:00,
2013-02-27 09:33:00,47.1,43.8,29.52,East,93,17.2,18.8,88,0.00,,,0.00,WUHU21623XXSP,2013-02-27 14:33:00,
2013-02-27 09:39:00,46.9,43.6,29.52,ENE,71,9.2,18.8,88,0.00,,,0.00,WUHU21623XXSP,2013-02-27 14:39:00,
2013-02-27 09:45:00,47.1,43.8,29.51,East,93,14.3,14.3,88,0.00,,,0.00,WUHU21623XXSP,2013-02-27 14:45:00,
2013-02-27 09:52:00,46.9,43.6,29.51,ENE,71,7.8,14.3,88,0.00,,,0.00,WUHU21623XXSP,2013-02-27 14:52:00,
2013-02-27 09:58:00,47.1,43.8,29.51,East,93,10.3,19.9,88,0.00,,,0.00,WUHU21623XXSP,2013-02-27 14:58:00,
2013-02-27 10:05:00,47.1,43.8,29.51,East,93,12.5,16.3,88,0.00,,,0.00,WUHU21623XXSP,2013-02-27 15:05:00,
2013-02-27 10:11:00,47.1,43.8,29.51,East,93,18.3,18.3,88,0.00,,,0.00,WUHU21623XXSP,2013-02-27 15:11:00,
2013-02-27 10:16:00,47.1,43.8,29.51,East,93,18.5,23.5,88,0.00,,,0.00,WUHU21623XXSP,2013-02-27 15:16:00,
2013-02-27 10:23:00,46.9,43.6,29.51,East,93,15.0,23.5,88,0.00,,,0.00,WUHU21623XXSP,2013-02-27 15:23:00,
2013-02-27 10:29:00,46.9,43.6,29.50,ENE,71,12.4,15.0,88,0.00,,,0.00,WUHU21623XXSP,2013-02-27 15:29:00,
2013-02-27 10:36:00,46.9,43.6,29.50,ESE,116,16.1,20.8,88,0.00,,,0.00,WUHU21623XXSP,2013-02-27 15:36:00,
2013-02-27 10:43:00,46.8,43.4,29.49,East,93,11.0,23.0,88,0.00,,,0.00,WUHU21623XXSP,2013-02-27 15:43:00,
2013-02-27 10:49:00,46.8,43.4,29.49,East,93,11.0,23.0,88,0.00,,,0.00,WUHU21623XXSP,2013-02-27 15:49:00,
2013-02-27 10:55:00,46.8,43.4,29.49,NE,48,5.6,13.6,88,0.00,,,0.00,WUHU21623XXSP,2013-02-27 15:55:00,
2013-02-27 11:02:00,46.8,43.7,29.49,East,93,17.2,18.6,89,0.00,,,0.00,WUHU21623XXSP,2013-02-27 16:02:00,
2013-02-27 11:08:00,46.8,43.7,29.49,ESE,116,10.7,18.6,89,0.00,,,0.00,WUHU21623XXSP,2013-02-27 16:08:00,
2013-02-27 11:15:00,46.8,43.7,29.49,ENE,71,8.3,10.7,89,0.00,,,0.00,WUHU21623XXSP,2013-02-27 16:15:00,
2013-02-27 11:21:00,46.8,43.7,29.49,East,93,8.1,11.6,89,0.00,,,0.00,WUHU21623XXSP,2013-02-27 16:21:00,
2013-02-27 11:28:00,46.8,43.7,29.49,East,93,6.7,11.6,89,0.00,,,0.00,WUHU21623XXSP,2013-02-27 16:28:00,
2013-02-27 11:34:00,46.9,43.9,29.49,ENE,71,10.5,10.5,89,0.00,,,0.00,WUHU21623XXSP,2013-02-27 16:34:00,
2013-02-27 11:40:00,47.1,44.1,29.49,ENE,71,6.7,10.5,89,0.00,,,0.00,WUHU21623XXSP,2013-02-27 16:40:00,
2013-02-27 11:47:00,47.3,44.1,29.48,ESE,116,8.1,8.1,89,0.00,,,0.00,WUHU21623XXSP,2013-02-27 16:47:00,
2013-02-27 11:53:00,47.3,44.5,29.48,ESE,116,8.3,8.3,89,0.00,,,0.00,WUHU21623XXSP,2013-02-27 16:53:00,
2013-02-27 12:00:00,47.7,44.5,29.46,East,93,4.3,8.3,89,0.00,,,0.00,WUHU21623XXSP,2013-02-27 17:00:00,
2013-02-27 12:06:00,48.0,44.8,29.47,East,93,3.8,4.3,89,0.00,,,0.00,WUHU21623XXSP,2013-02-27 17:06:00,
2013-02-27 12:13:00,48.0,45.0,29.48,ESE,116,5.6,6.7,89,0.00,,,0.00,WUHU21623XXSP,2013-02-27 17:13:00,
2013-02-27 12:19:00,48.2,45.2,29.48,ESE,116,7.6,7.6,89,0.00,,,0.00,WUHU21623XXSP,2013-02-27 17:19:00,
2013-02-27 12:26:00,48.2,45.2,29.47,ESE,116,5.1,10.5,89,0.00,,,0.00,WUHU21623XXSP,2013-02-27 17:26:00,
2013-02-27 12:32:00,48.2,45.2,29.46,SE,138,4.0,10.5,89,0.00,,,0.00,WUHU21623XXSP,2013-02-27 17:32:00,
2013-02-27 12:39:00,48.4,45.3,29.46,East,93,5.4,7.8,89,0.00,,,0.00,WUHU21623XXSP,2013-02-27 17:39:00,
2013-02-27 12:45:00,48.6,45.3,29.46,ESE,116,8.1,8.1,89,0.00,,,0.00,WUHU21623XXSP,2013-02-27 17:45:00,
2013-02-27 12:52:00,48.6,45.5,29.46,ESE,116,3.8,8.1,89,0.00,,,0.00,WUHU21623XXSP,2013-02-27 17:52:00,
2013-02-27 12:58:00,48.6,45.5,29.45,ESE,116,2.6,4.5,89,0.00,,,0.00,WUHU21623XXSP,2013-02-27 17:58:00,
2013-02-27 13:04:00,48.7,45.7,29.45,SE,136,5.3,5.8,89,0.00,,,0.00,WUHU21623XXSP,2013-02-27 18:04:00,
2013-02-27 13:11:00,48.7,45.7,29.46,SE,138,0.0,5.8,89,0.00,,,0.00,WUHU21623XXSP,2013-02-27 18:11:00,
2013-02-27 13:17:00,48.7,45.7,29.46,SSE,161,7.4,7.4,89,0.00,,,0.00,WUHU21623XXSP,2013-02-27 18:17:00,
2013-02-27 13:24:00,48.6,45.5,29.46,SSE,161,3.1,7.4,89,0.00,,,0.00,WUHU21623XXSP,2013-02-27 18:24:00,
2013-02-27 13:30:00,48.2,45.3,29.47,SSE,161,6.9,6.9,88,0.00,,,0.00,WUHU21623XXSP,2013-02-27 18:30:00,
2013-02-27 13:37:00,47.8,44.5,29.47,SSE,161,3.6,6.9,88,0.00,,,0.00,WUHU21623XXSP,2013-02-27 18:37:00,
2013-02-27 13:43:00,47.8,44.5,29.47,South,170,3.7,4.5,88,0.00,,,0.00,WUHU21623XXSP,2013-02-27 18:43:00,
2013-02-27 13:50:00,47.8,44.5,29.47,South,183,3.4,4.5,88,0.00,,,0.00,WUHU21623XXSP,2013-02-27 18:50:00,
2013-02-27 13:56:00,47.8,44.5,29.47,South,183,4.3,4.5,88,0.00,,,0.00,WUHU21623XXSP,2013-02-27 18:56:00,
2013-02-27 14:03:00,48.0,44.7,29.47,South,183,4.0,4.7,88,0.00,,,0.00,WUHU21623XXSP,2013-02-27 19:03:00,
2013-02-27 14:09:00,48.0,44.7,29.47,SE,138,2.9,4.5,88,0.00,,,0.00,WUHU21623XXSP,2013-02-27 19:09:00,
2013-02-27 14:15:00,48.0,44.7,29.48,SSE,162,2.7,4.5,88,0.00,,,0.00,WUHU21623XXSP,2013-02-27 19:15:00,
2013-02-27 14:22:00,48.0,44.7,29.47,SE,138,2.5,2.9,88,0.00,,,0.00,WUHU21623XXSP,2013-02-27 19:22:00,
2013-02-27 14:28:00,48.2,44.9,29.47,South,183,3.1,3.4,88,0.00,,,0.00,WUHU21623XXSP,2013-02-27 19:28:00,
2013-02-27 14:35:00,48.6,45.2,29.47,SSE,161,5.6,5.6,88,0.00,,,0.00,WUHU21623XXSP,2013-02-27 19:35:00,
2013-02-27 14:41:00,48.9,45.5,29.48,SW,228,5.8,5.8,88,0.00,,,0.00,WUHU21623XXSP,2013-02-27 19:41:00,
2013-02-27 14:48:00,49.3,45.8,29.48,West,273,1.8,5.8,88,0.00,,,0.00,WUHU21623XXSP,2013-02-27 19:48:00,
2013-02-27 14:54:00,49.6,46.2,29.48,West,261,3.9,4.3,88,0.00,,,0.00,WUHU21623XXSP,2013-02-27 19:54:00,
2013-02-27 15:00:00,49.6,46.2,29.48,SW,228,3.8,5.8,88,0.00,,,0.00,WUHU21623XXSP,2013-02-27 20:00:00,
2013-02-27 15:07:00,49.8,46.3,29.48,SSW,206,6.0,6.0,88,0.00,,,0.00,WUHU21623XXSP,2013-02-27 20:07:00,
2013-02-27 15:13:00,49.8,46.0,29.49,SW,228,4.9,6.0,87,0.00,,,0.00,WUHU21623XXSP,2013-02-27 20:13:00,
2013-02-27 15:20:00,50.0,46.2,29.49,WSW,241,3.7,5.1,87,0.00,,,0.00,WUHU21623XXSP,2013-02-27 20:20:00,
2013-02-27 15:26:00,50.2,46.4,29.49,WSW,240,2.7,3.8,87,0.00,,,0.00,WUHU21623XXSP,2013-02-27 20:26:00,
2013-02-27 15:33:00,50.2,46.1,29.49,WSW,239,5.3,5.4,86,0.00,,,0.00,WUHU21623XXSP,2013-02-27 20:33:00,
2013-02-27 15:39:00,50.2,46.1,29.50,SSW,206,6.0,6.0,86,0.00,,,0.00,WUHU21623XXSP,2013-02-27 20:39:00,
2013-02-27 15:46:00,50.0,45.9,29.51,WSW,251,3.1,10.3,86,0.00,,,0.00,WUHU21623XXSP,2013-02-27 20:46:00,
2013-02-27 15:52:00,49.8,45.4,29.50,SW,228,3.4,10.3,85,0.00,,,0.00,WUHU21623XXSP,2013-02-27 20:52:00,
2013-02-27 15:58:00,49.8,45.4,29.51,West,273,7.4,13.2,85,0.00,,,0.00,WUHU21623XXSP,2013-02-27 20:58:00,
2013-02-27 16:05:00,49.8,45.1,29.51,WNW,296,4.7,7.4,84,0.00,,,0.00,WUHU21623XXSP,2013-02-27 21:05:00,
2013-02-27 16:12:00,49.8,45.1,29.51,NNW,341,3.6,7.4,84,0.00,,,0.00,WUHU21623XXSP,2013-02-27 21:12:00,
2013-02-27 16:18:00,49.6,44.9,29.51,WNW,296,4.3,4.3,83,0.00,,,0.00,WUHU21623XXSP,2013-02-27 21:18:00,
2013-02-27 16:24:00,49.5,44.4,29.51,NNW,341,2.9,6.3,83,0.00,,,0.00,WUHU21623XXSP,2013-02-27 21:24:00,
2013-02-27 16:31:00,49.3,44.3,29.51,West,273,0.0,2.9,83,0.00,,,0.00,WUHU21623XXSP,2013-02-27 21:31:00,
2013-02-27 16:37:00,49.5,44.4,29.52,WSW,251,4.7,4.7,83,0.00,,,0.00,WUHU21623XXSP,2013-02-27 21:37:00,
2013-02-27 16:44:00,49.3,44.3,29.51,West,273,1.3,7.6,83,0.00,,,0.00,WUHU21623XXSP,2013-02-27 21:44:00,
2013-02-27 16:50:00,49.3,44.3,29.52,WSW,251,2.5,7.6,83,0.00,,,0.00,WUHU21623XXSP,2013-02-27 21:50:00,
2013-02-27 16:56:00,49.3,44.3,29.51,WSW,251,5.6,5.6,83,0.00,,,0.00,WUHU21623XXSP,2013-02-27 21:56:00,
2013-02-27 17:03:00,49.1,43.5,29.52,WSW,251,3.4,5.6,81,0.00,,,0.00,WUHU21623XXSP,2013-02-27 22:03:00,
2013-02-27 17:10:00,48.9,43.0,29.53,WSW,251,6.5,7.6,80,0.00,,,0.00,WUHU21623XXSP,2013-02-27 22:10:00,
2013-02-27 17:16:00,48.7,42.5,29.53,West,273,7.6,7.6,79,0.00,,,0.00,WUHU21623XXSP,2013-02-27 22:16:00,
2013-02-27 17:22:00,48.6,41.9,29.54,SW,228,8.9,8.9,78,0.00,,,0.00,WUHU21623XXSP,2013-02-27 22:22:00,
2013-02-27 17:29:00,48.4,41.8,29.54,West,273,4.3,8.9,78,0.00,,,0.00,WUHU21623XXSP,2013-02-27 22:29:00,
2013-02-27 17:35:00,48.0,41.4,29.55,West,273,6.9,6.9,78,0.00,,,0.00,WUHU21623XXSP,2013-02-27 22:35:00,
2013-02-27 17:42:00,48.0,41.4,29.55,WSW,244,6.3,8.7,77,0.00,,,0.00,WUHU21623XXSP,2013-02-27 22:42:00,
2013-02-27 17:48:00,47.8,40.9,29.55,West,273,5.6,10.7,77,0.00,,,0.00,WUHU21623XXSP,2013-02-27 22:48:00,
2013-02-27 17:54:00,47.8,40.9,29.56,WSW,251,4.0,10.7,77,0.00,,,0.00,WUHU21623XXSP,2013-02-27 22:54:00,
2013-02-27 18:01:00,47.5,40.6,29.56,NNW,341,4.5,6.0,77,0.00,,,0.00,WUHU21623XXSP,2013-02-27 23:01:00,
2013-02-27 18:07:00,47.5,40.2,29.57,West,273,1.3,8.3,76,0.00,,,0.00,WUHU21623XXSP,2013-02-27 23:07:00,
2013-02-27 18:14:00,47.3,40.1,29.57,WSW,251,4.5,8.3,76,0.00,,,0.00,WUHU21623XXSP,2013-02-27 23:14:00,
2013-02-27 18:20:00,47.1,40.3,29.57,WNW,296,0.9,5.4,77,0.00,,,0.00,WUHU21623XXSP,2013-02-27 23:20:00,
2013-02-27 18:27:00,47.1,39.9,29.57,WNW,296,2.9,4.0,77,0.00,,,0.00,WUHU21623XXSP,2013-02-27 23:27:00,
2013-02-27 18:33:00,47.1,39.9,29.58,West,273,5.8,5.8,76,0.00,,,0.00,WUHU21623XXSP,2013-02-27 23:33:00,
2013-02-27 18:40:00,46.9,39.8,29.58,West,273,13.0,13.0,76,0.00,,,0.00,WUHU21623XXSP,2013-02-27 23:40:00,
2013-02-27 18:46:00,46.8,39.6,29.59,WNW,296,3.4,13.0,76,0.00,,,0.00,WUHU21623XXSP,2013-02-27 23:46:00,
2013-02-27 18:53:00,46.6,39.4,29.59,NNW,341,1.6,4.5,76,0.00,,,0.00,WUHU21623XXSP,2013-02-27 23:53:00,
2013-02-27 18:59:00,46.6,39.4,29.59,West,273,16.1,16.1,76,0.00,,,0.00,WUHU21623XXSP,2013-02-27 23:59:00,
2013-02-27 19:06:00,46.2,39.1,29.59,West,273,6.9,16.1,76,0.00,,,0.00,WUHU21623XXSP,2013-02-28 00:06:00,
2013-02-27 19:12:00,46.2,39.1,29.59,NNW,341,7.4,7.4,76,0.00,,,0.00,WUHU21623XXSP,2013-02-28 00:12:00,
2013-02-27 19:18:00,46.0,38.9,29.59,West,273,5.1,7.4,76,0.00,,,0.00,WUHU21623XXSP,2013-02-28 00:18:00,
2013-02-27 19:25:00,46.0,38.9,29.60,West,273,3.8,5.8,76,0.00,,,0.00,WUHU21623XXSP,2013-02-28 00:25:00,
2013-02-27 19:31:00,46.0,38.9,29.59,WNW,296,5.8,5.8,76,0.00,,,0.00,WUHU21623XXSP,2013-02-28 00:31:00,
2013-02-27 19:38:00,45.7,38.2,29.59,West,273,8.9,8.9,75,0.00,,,0.00,WUHU21623XXSP,2013-02-28 00:38:00,
2013-02-27 19:44:00,45.7,38.2,29.60,NNW,341,1.1,8.9,75,0.00,,,0.00,WUHU21623XXSP,2013-02-28 00:44:00,
2013-02-27 19:51:00,45.7,38.2,29.60,West,273,2.5,6.3,75,0.00,,,0.00,WUHU21623XXSP,2013-02-28 00:51:00,
2013-02-27 19:57:00,45.5,38.0,29.60,NW,318,6.0,8.9,75,0.00,,,0.00,WUHU21623XXSP,2013-02-28 00:57:00,
2013-02-27 20:04:00,45.5,38.0,29.60,West,273,6.7,6.7,75,0.00,,,0.00,WUHU21623XXSP,2013-02-28 01:04:00,
2013-02-27 20:10:00,45.3,37.9,29.60,WNW,296,4.0,6.7,75,0.00,,,0.00,WUHU21623XXSP,2013-02-28 01:10:00,
2013-02-27 20:16:00,45.3,37.9,29.60,WNW,296,1.6,5.1,75,0.00,,,0.00,WUHU21623XXSP,2013-02-28 01:16:00,
2013-02-27 20:23:00,45.3,37.9,29.61,West,273,5.4,5.4,75,0.00,,,0.00,WUHU21623XXSP,2013-02-28 01:23:00,
2013-02-27 20:30:00,45.3,37.9,29.61,WNW,296,4.0,5.4,75,0.00,,,0.00,WUHU21623XXSP,2013-02-28 01:30:00,
2013-02-27 20:36:00,45.3,37.9,29.62,NW,318,3.1,6.5,75,0.00,,,0.00,WUHU21623XXSP,2013-02-28 01:36:00,
2013-02-27 20:42:00,45.3,37.9,29.62,West,273,2.5,5.4,75,0.00,,,0.00,WUHU21623XXSP,2013-02-28 01:42:00,
2013-02-27 20:49:00,45.3,37.9,29.62,West,273,2.5,4.5,75,0.00,,,0.00,WUHU21623XXSP,2013-02-28 01:49:00,
2013-02-27 20:55:00,45.3,37.9,29.62,WNW,296,3.8,3.8,75,0.00,,,0.00,WUHU21623XXSP,2013-02-28 01:55:00,
2013-02-27 21:02:00,45.3,37.9,29.62,NNW,341,2.5,5.1,75,0.00,,,0.00,WUHU21623XXSP,2013-02-28 02:02:00,
2013-02-27 21:08:00,45.3,37.9,29.62,NW,318,4.5,5.1,75,0.00,,,0.00,WUHU21623XXSP,2013-02-28 02:08:00,
2013-02-27 21:15:00,45.3,37.9,29.61,North,3,2.0,4.5,75,0.00,,,0.00,WUHU21623XXSP,2013-02-28 02:15:00,
2013-02-27 21:21:00,45.1,37.7,29.61,NW,318,4.5,4.5,75,0.00,,,0.00,WUHU21623XXSP,2013-02-28 02:21:00,
2013-02-27 21:28:00,45.1,37.7,29.60,NNW,341,2.5,4.9,75,0.00,,,0.00,WUHU21623XXSP,2013-02-28 02:28:00,
2013-02-27 21:34:00,45.1,37.7,29.61,WNW,296,2.0,5.1,75,0.00,,,0.00,WUHU21623XXSP,2013-02-28 02:34:00,
2013-02-27 21:40:00,45.1,37.7,29.61,West,273,2.0,2.0,75,0.00,,,0.00,WUHU21623XXSP,2013-02-28 02:40:00,
2013-02-27 21:47:00,45.1,37.7,29.61,WNW,296,1.8,2.0,75,0.00,,,0.00,WUHU21623XXSP,2013-02-28 02:47:00,
2013-02-27 21:53:00,45.1,37.7,29.61,WNW,296,2.0,4.0,75,0.00,,,0.00,WUHU21623XXSP,2013-02-28 02:53:00,
2013-02-27 22:00:00,45.1,37.7,29.61,West,273,2.2,3.8,75,0.00,,,0.00,WUHU21623XXSP,2013-02-28 03:00:00,
2013-02-27 22:06:00,45.1,37.7,29.61,West,273,1.3,3.8,75,0.00,,,0.00,WUHU21623XXSP,2013-02-28 03:06:00,
2013-02-27 22:13:00,45.3,37.7,29.62,West,273,1.3,1.3,75,0.00,,,0.00,WUHU21623XXSP,2013-02-28 03:13:00,
2013-02-27 22:19:00,45.5,38.0,29.62,WSW,251,1.8,1.8,75,0.00,,,0.00,WUHU21623XXSP,2013-02-28 03:19:00,
2013-02-27 22:26:00,45.7,38.2,29.62,WNW,296,2.7,2.7,75,0.00,,,0.00,WUHU21623XXSP,2013-02-28 03:26:00,
2013-02-27 22:32:00,46.0,38.6,29.61,WSW,251,0.0,2.7,75,0.00,,,0.00,WUHU21623XXSP,2013-02-28 03:32:00,
2013-02-27 22:39:00,46.0,38.6,29.61,SW,228,1.3,2.5,75,0.00,,,0.00,WUHU21623XXSP,2013-02-28 03:39:00,
2013-02-27 22:45:00,46.2,38.8,29.60,NNW,341,2.5,2.5,75,0.00,,,0.00,WUHU21623XXSP,2013-02-28 03:45:00,
2013-02-27 22:51:00,46.2,38.8,29.60,West,273,0.9,2.5,75,0.00,,,0.00,WUHU21623XXSP,2013-02-28 03:51:00,
2013-02-27 22:58:00,46.2,38.8,29.60,SW,228,3.4,3.4,75,0.00,,,0.00,WUHU21623XXSP,2013-02-28 03:58:00,
2013-02-27 23:03:00,46.2,38.4,29.61,WSW,251,1.6,3.4,74,0.00,,,0.00,WUHU21623XXSP,2013-02-28 04:03:00,
2013-02-27 23:11:00,46.2,38.4,29.61,WSW,251,1.8,4.5,74,0.00,,,0.00,WUHU21623XXSP,2013-02-28 04:11:00,
2013-02-27 23:17:00,46.2,38.4,29.61,SW,228,2.9,2.9,74,0.00,,,0.00,WUHU21623XXSP,2013-02-28 04:17:00,
2013-02-27 23:23:00,46.2,38.4,29.60,West,273,2.0,2.9,74,0.00,,,0.00,WUHU21623XXSP,2013-02-28 04:23:00,
2013-02-27 23:30:00,46.2,38.4,29.60,WSW,251,1.8,2.0,74,0.00,,,0.00,WUHU21623XXSP,2013-02-28 04:30:00,
2013-02-27 23:36:00,46.2,38.8,29.60,West,273,2.2,2.2,75,0.00,,,0.00,WUHU21623XXSP,2013-02-28 04:36:00,
2013-02-27 23:43:00,46.2,38.8,29.60,WSW,251,2.2,3.1,75,0.00,,,0.00,WUHU21623XXSP,2013-02-28 04:43:00,
2013-02-27 23:49:00,46.2,38.8,29.59,WSW,251,2.5,3.1,75,0.00,,,0.00,WUHU21623XXSP,2013-02-28 04:49:00,
2013-02-27 23:56:00,46.2,38.8,29.60,SSW,206,2.5,2.9,75,0.00,,,0.00,WUHU21623XXSP,2013-02-28 04:56:00,